This is the latest recevied weather packets stored in our database for station/object KC0SIQ-13. If no packets are shown the sender has not sent any weather packets the latest 10 day(s).
| Time | Temp. | Humidity | Pressure | Rain* | Wind** | Luminosity | Snow |
|---|---|---|---|---|---|---|---|
| 1777740875 | 17.78° C | 24% | 1019 hPa | 0 mm | - | 851 W/m² | - |
| 1777740572 | 17.22° C | 26% | 1018.9 hPa | 0 mm | - | 869 W/m² | - |
| 1777740268 | 17.22° C | 27% | 1018.8 hPa | 0 mm | - | 47 W/m² | - |
| 1777739965 | 16.67° C | 29% | 1019.2 hPa | 0 mm | - | 47 W/m² | - |
| 1777739661 | 16.11° C | 31% | 1019 hPa | 0 mm | - | 46 W/m² | - |
| 1777739359 | 15.56° C | 33% | 1019.2 hPa | 0 mm | - | 47 W/m² | - |
| 1777739056 | 15.56° C | 31% | 1019.3 hPa | 0 mm | - | 46 W/m² | - |
| 1777738753 | 15.56° C | 33% | 1019.2 hPa | 0 mm | - | 47 W/m² | - |
| 1777738449 | 15° C | 33% | 1019.3 hPa | 0 mm | - | 46 W/m² | - |
| 1777738147 | 14.44° C | 35% | 1019.2 hPa | 0 mm | - | 46 W/m² | - |
| 1777737845 | 14.44° C | 36% | 1019.3 hPa | 0 mm | - | 46 W/m² | - |
| 1777737544 | 13.89° C | 36% | 1019.5 hPa | 0 mm | - | 46 W/m² | - |
| 1777737241 | 13.89° C | 36% | 1019.3 hPa | 0 mm | - | 46 W/m² | - |
| 1777736937 | 13.89° C | 36% | 1019.2 hPa | 0 mm | - | 46 W/m² | - |
| 1777736025 | 12.78° C | 39% | 1019.2 hPa | 0 mm | - | 44 W/m² | - |
| 1777735717 | 12.22° C | 39% | 1019.5 hPa | 0 mm | - | 43 W/m² | - |
| 1777735414 | 12.22° C | 41% | 1019.6 hPa | 0 mm | - | 42 W/m² | - |
| 1777735112 | 11.67° C | 40% | 1019.5 hPa | 0 mm | - | 41 W/m² | - |
| 1777734808 | 11.11° C | 42% | 1019.6 hPa | 0 mm | - | 40 W/m² | - |
| 1777734506 | 11.11° C | 43% | 1019.8 hPa | 0 mm | - | 39 W/m² | - |
| 1777734202 | 10.56° C | 43% | 1019.6 hPa | 0 mm | - | 39 W/m² | - |
| 1777733898 | 10.56° C | 43% | 1019.8 hPa | 0 mm | - | 38 W/m² | - |
| 1777733595 | 11.11° C | 44% | 1019.7 hPa | 0 mm | - | 36 W/m² | - |
| 1777733291 | 10.56° C | 45% | 1020.2 hPa | 0 mm | - | 36 W/m² | - |
| 1777732989 | 10° C | 45% | 1019.8 hPa | 0 mm | - | 350 W/m² | - |
* Rain latest hour (hover to see other rain measurements)
** Current wind speed in m/s (hover to see current wind gust speed)